| time (UTC) | temp F | wind direction | speed knots | gust knots | rain 1hr in | rain 24hr in | rain mn in | humidity % | barometer mb |
| 20260902101004 | 69 | 289 | 12.2 | 26.1 | 0.12 | 0.13 | 0.13 | 93 | 1021.3 |
| 20260902095003 | 73 | 353 | 5.2 | 13.0 | 0.07 | 0.08 | 0.08 | 98 | 1016.5 |
| 20260902094003 | 73 | 320 | 1.7 | 5.2 | 0.07 | 0.08 | 0.08 | 97 | 1015.4 |
| 20260902093003 | 73 | 84 | 0.9 | 2.6 | 0.00 | 0.01 | 0.01 | 96 | 1015.1 |
| 20260902092003 | 74 | 82 | 1.7 | 2.6 | 0.00 | 0.01 | 0.01 | 96 | 1015.3 |
| 20260902091004 | 74 | 76 | 1.7 | 2.6 | 0.01 | 0.01 | 0.01 | 95 | 1015.9 |
| 20260902090004 | 74 | 90 | 1.7 | 4.3 | 0.01 | 0.01 | 0.01 | 94 | 1016.6 |
| 20260902085004 | 74 | 183 | 0.9 | 1.7 | 0.01 | 0.01 | 0.01 | 94 | 1016.8 |
| 20260902084003 | 74 | 224 | 0.9 | 1.7 | 0.01 | 0.01 | 0.01 | 93 | 1016.6 |
| 20260902083003 | 74 | 325 | 1.7 | 4.3 | 0.01 | 0.01 | 0.01 | 92 | 1016.4 |
| 20260902082003 | 75 | 280 | 0.9 | 2.6 | 0.00 | 0.00 | 0.00 | 89 | 1016.1 |
| 20260902080003 | 76 | 117 | 0.9 | 2.6 | 0.00 | 0.00 | 0.00 | 85 | 1016.1 |
| 20260902075003 | 75 | 186 | 0.9 | 1.7 | 0.00 | 0.00 | 0.00 | 86 | 1015.9 |
| 20260902074004 | 75 | 113 | 1.7 | 4.3 | 0.00 | 0.00 | 0.00 | 86 | 1016.2 |
| 20260902073003 | 76 | 160 | 1.7 | 4.3 | 0.00 | 0.00 | 0.00 | 86 | 1016.3 |
| 20260902072003 | 75 | 128 | 0.9 | 1.7 | 0.00 | 0.00 | 0.00 | 85 | 1015.6 |
| 20260902071004 | 75 | 96 | 0.0 | 0.9 | 0.00 | 0.00 | 0.00 | 85 | 1015.9 |
| 20260902070004 | 75 | 153 | 0.0 | 0.9 | 0.00 | 0.00 | 0.00 | 86 | 1016.1 |
| 20260902065003 | 76 | 337 | 0.0 | 1.7 | 0.00 | 0.00 | 0.00 | 85 | 1015.9 |
| 20260902064003 | 76 | 33 | 0.0 | 0.9 | 0.00 | 0.00 | 0.00 | 83 | 1015.8 |
| 20260902063003 | 77 | 65 | 0.0 | 1.7 | 0.00 | 0.00 | 0.00 | 81 | 1015.8 |
| 20260902062003 | 77 | 144 | 0.0 | 1.7 | 0.00 | 0.00 | 0.00 | 81 | 1016.2 |
| 20260902060003 | 77 | 89 | 0.0 | 0.9 | 0.00 | 0.00 | 0.00 | 80 | 1016.5 |
| 20260902055003 | 78 | 77 | 0.0 | 1.7 | 0.00 | 0.00 | 0.00 | 80 | 1016.1 |
| 20260902054004 | 78 | 302 | 0.9 | 2.6 | 0.00 | 0.00 | 0.00 | 79 | 1016.2 |
| 20260902053004 | 78 | 189 | 0.9 | 1.7 | 0.00 | 0.00 | 0.00 | 79 | 1016.0 |
| 20260902052004 | 79 | 231 | 0.9 | 2.6 | 0.00 | 0.00 | 0.00 | 78 | 1016.0 |
| 20260902050005 | 80 | 274 | 0.9 | 1.7 | 0.00 | 0.00 | 0.00 | 77 | 1015.7 |
| 20260902045003 | 80 | 247 | 1.7 | 2.6 | 0.00 | 0.00 | 0.00 | 77 | 1015.7 |
| 20260902044003 | 81 | 225 | 0.9 | 4.3 | 0.00 | 0.00 | 0.00 | 76 | 1015.8 |
| 20260902043003 | 81 | 246 | 2.6 | 6.1 | 0.00 | 0.00 | 0.00 | 76 | 1015.9 |
| 20260902042003 | 81 | 212 | 1.7 | 5.2 | 0.00 | 0.00 | 0.00 | 77 | 1015.7 |
| 20260902040003 | 82 | 255 | 1.7 | 5.2 | 0.00 | 0.00 | 0.00 | 77 | 1015.8 |
| 20260902035003 | 82 | 221 | 2.6 | 5.2 | 0.00 | 0.00 | 0.00 | 79 | 1015.9 |
| 20260902034003 | 82 | 258 | 2.6 | 6.1 | 0.00 | 0.00 | 0.00 | 81 | 1015.8 |
| 20260902033004 | 82 | 228 | 2.6 | 7.0 | 0.00 | 0.00 | 0.00 | 81 | 1015.9 |
| 20260902032003 | 82 | 225 | 3.5 | 6.1 | 0.00 | 0.00 | 0.00 | 82 | 1015.7 |
| 20260902031003 | 82 | 212 | 2.6 | 5.2 | 0.00 | 0.00 | 0.00 | 82 | 1015.3 |
| 20260902025003 | 82 | 206 | 2.6 | 5.2 | 0.00 | 0.00 | 0.00 | 84 | 1015.4 |
| 20260902023003 | 82 | 191 | 1.7 | 4.3 | 0.00 | 0.00 | 0.00 | 83 | 1015.5 |
| 20260902022003 | 82 | 194 | 1.7 | 4.3 | 0.00 | 0.00 | 0.00 | 82 | 1015.3 |
| 20260902021003 | 83 | 202 | 2.6 | 6.1 | 0.00 | 0.00 | 0.00 | 81 | 1015.4 |
| 20260902020003 | 83 | 205 | 3.5 | 6.1 | 0.00 | 0.00 | 0.00 | 80 | 1015.4 |
| 20260902015004 | 84 | 196 | 1.7 | 4.3 | 0.00 | 0.00 | 0.00 | 80 | 1015.3 |
| 20260902014003 | 84 | 219 | 1.7 | 4.3 | 0.00 | 0.00 | 0.00 | 79 | 1015.1 |
| 20260902013004 | 84 | 219 | 1.7 | 4.3 | 0.00 | 0.00 | 0.00 | 80 | 1015.4 |
| 20260902012004 | 85 | 195 | 0.9 | 4.3 | 0.00 | 0.00 | 0.00 | 79 | 1015.2 |
| 20260902011004 | 85 | 214 | 1.7 | 4.3 | 0.00 | 0.00 | 0.00 | 78 | 1015.0 |
| 20260902010002 | 85 | 233 | 0.9 | 2.6 | 0.00 | 0.00 | 0.00 | 78 | 1014.8 |
| 20260902005003 | 85 | 227 | 0.9 | 4.3 | 0.00 | 0.00 | 0.00 | 78 | 1014.7 |
| 20260902004003 | 85 | 215 | 0.9 | 4.3 | 0.00 | 0.00 | 0.00 | 77 | 1014.9 |
| 20260902003003 | 86 | 277 | 1.7 | 2.6 | 0.00 | 0.00 | 0.00 | 76 | 1014.7 |
| 20260902001003 | 86 | 188 | 1.7 | 5.2 | 0.00 | 0.00 | 0.00 | 75 | 1014.4 |
| 20260901235003 | 87 | 222 | 2.6 | 7.0 | 0.00 | 0.00 | 0.00 | 72 | 1014.5 |
| 20260901233003 | 88 | 206 | 3.5 | 6.1 | 0.00 | 0.00 | 0.00 | 68 | 1014.4 |
| 20260901231003 | 90 | 227 | 4.3 | 7.8 | 0.00 | 0.00 | 0.00 | 65 | 1014.5 |
| 20260901230004 | 91 | 233 | 3.5 | 10.4 | 0.00 | 0.00 | 0.00 | 64 | 1014.8 |
| 20260901224003 | 90 | 201 | 4.3 | 7.8 | 0.00 | 0.00 | 0.00 | 66 | 1014.7 |
| 20260901223004 | 90 | 199 | 2.6 | 8.7 | 0.00 | 0.00 | 0.00 | 66 | 1014.8 |
| 20260901222003 | 90 | 183 | 2.6 | 6.1 | 0.00 | 0.00 | 0.00 | 66 | 1014.8 |
| 20260901221003 | 90 | 210 | 2.6 | 7.8 | 0.00 | 0.00 | 0.00 | 64 | 1014.8 |
| 20260901220003 | 91 | 193 | 5.2 | 11.3 | 0.00 | 0.00 | 0.00 | 63 | 1014.5 |
| 20260901215003 | 92 | 273 | 4.3 | 7.8 | 0.00 | 0.00 | 0.00 | 61 | 1014.8 |
| 20260901214003 | 92 | 245 | 3.5 | 7.0 | 0.00 | 0.00 | 0.00 | 61 | 1014.9 |
| 20260901212004 | 92 | 213 | 1.7 | 6.1 | 0.00 | 0.00 | 0.00 | 63 | 1014.8 |
| 20260901211003 | 90 | 193 | 0.9 | 6.1 | 0.00 | 0.00 | 0.00 | 67 | 1015.0 |
| 20260901210003 | 91 | 229 | 2.6 | 7.0 | 0.00 | 0.00 | 0.00 | 64 | 1015.0 |
| 20260901205003 | 91 | 220 | 2.6 | 7.0 | 0.00 | 0.00 | 0.00 | 64 | 1015.1 |
| 20260901204003 | 91 | 215 | 4.3 | 7.8 | 0.00 | 0.00 | 0.00 | 63 | 1015.0 |
| 20260901203003 | 91 | 226 | 2.6 | 7.0 | 0.00 | 0.00 | 0.00 | 64 | 1014.9 |
| 20260901201003 | 91 | 262 | 4.3 | 7.8 | 0.00 | 0.00 | 0.00 | 66 | 1015.4 |
| 20260901200004 | 91 | 222 | 4.3 | 6.1 | 0.00 | 0.00 | 0.00 | 65 | 1015.3 |
| 20260901195003 | 90 | 200 | 2.6 | 5.2 | 0.00 | 0.00 | 0.00 | 68 | 1015.3 |
| 20260901193004 | 90 | 191 | 2.6 | 7.8 | 0.00 | 0.00 | 0.00 | 66 | 1015.7 |
| 20260901192003 | 91 | 259 | 4.3 | 7.8 | 0.00 | 0.00 | 0.00 | 66 | 1015.6 |
| 20260901191004 | 91 | 230 | 3.5 | 7.0 | 0.00 | 0.00 | 0.00 | 65 | 1015.8 |
| 20260901190003 | 90 | 307 | 1.7 | 6.1 | 0.00 | 0.00 | 0.00 | 68 | 1015.8 |
| 20260901185003 | 89 | 269 | 3.5 | 7.0 | 0.00 | 0.00 | 0.00 | 68 | 1015.9 |
| 20260901184004 | 91 | 199 | 2.6 | 5.2 | 0.00 | 0.00 | 0.00 | 68 | 1015.8 |
| 20260901183004 | 89 | 272 | 3.5 | 6.1 | 0.00 | 0.00 | 0.00 | 73 | 1015.9 |
| 20260901182004 | 89 | 40 | 0.9 | 7.0 | 0.00 | 0.00 | 0.00 | 74 | 1015.9 |
| 20260901181003 | 87 | 290 | 2.6 | 7.8 | 0.00 | 0.00 | 0.00 | 76 | 1016.1 |
| 20260901180003 | 86 | 282 | 5.2 | 7.8 | 0.00 | 0.00 | 0.00 | 80 | 1016.0 |
| 20260901174004 | 87 | 343 | 4.3 | 7.8 | 0.00 | 0.00 | 0.00 | 79 | 1016.5 |
| 20260901172003 | 84 | 310 | 2.6 | 6.1 | 0.00 | 0.00 | 0.00 | 84 | 1016.8 |
| 20260901171004 | 84 | 281 | 4.3 | 8.7 | 0.00 | 0.00 | 0.00 | 84 | 1016.7 |
| 20260901170003 | 86 | 296 | 4.3 | 7.0 | 0.00 | 0.00 | 0.00 | 81 | 1016.7 |
| 20260901165004 | 85 | 301 | 0.9 | 5.2 | 0.00 | 0.00 | 0.00 | 83 | 1016.9 |
| 20260901164003 | 85 | 6 | 0.9 | 6.1 | 0.00 | 0.00 | 0.00 | 82 | 1016.9 |
| 20260901162004 | 84 | 301 | 1.7 | 7.8 | 0.00 | 0.00 | 0.00 | 85 | 1017.2 |
| 20260901161004 | 83 | 304 | 1.7 | 6.1 | 0.00 | 0.00 | 0.00 | 85 | 1017.0 |
| 20260901160004 | 82 | 194 | 2.6 | 5.2 | 0.00 | 0.00 | 0.00 | 87 | 1017.2 |
| 20260901155003 | 81 | 295 | 1.7 | 6.1 | 0.00 | 0.00 | 0.00 | 88 | 1017.3 |
| 20260901153004 | 80 | 296 | 1.7 | 4.3 | 0.00 | 0.00 | 0.00 | 90 | 1017.1 |
| 20260901151003 | 80 | 254 | 1.7 | 5.2 | 0.00 | 0.00 | 0.00 | 90 | 1017.0 |
| 20260901150003 | 79 | 276 | 0.9 | 4.3 | 0.00 | 0.00 | 0.00 | 92 | 1016.9 |
| 20260901145003 | 79 | 240 | 1.7 | 4.3 | 0.00 | 0.00 | 0.00 | 92 | 1016.9 |
| 20260901144003 | 78 | 300 | 2.6 | 5.2 | 0.00 | 0.00 | 0.00 | 94 | 1017.1 |
| 20260901143003 | 78 | 233 | 0.9 | 4.3 | 0.00 | 0.00 | 0.00 | 95 | 1017.0 |
| 20260901142003 | 77 | 205 | 1.7 | 2.6 | 0.00 | 0.00 | 0.00 | 96 | 1016.8 |
| 20260901141003 | 76 | 170 | 0.9 | 1.7 | 0.00 | 0.00 | 0.00 | 97 | 1017.0 |
| 20260901140003 | 76 | 336 | 1.7 | 2.6 | 0.00 | 0.00 | 0.00 | 98 | 1016.8 |
| 20260901135003 | 75 | 32 | 0.9 | 2.6 | 0.00 | 0.00 | 0.00 | 99 | 1016.8 |
| 20260901134003 | 75 | 279 | 0.9 | 4.3 | 0.00 | 0.00 | 0.00 | 99 | 1016.7 |
| 20260901132003 | 74 | 157 | 0.9 | 1.7 | 0.00 | 0.00 | 0.00 | 99 | 1016.8 |
| 20260901131003 | 74 | 134 | 0.9 | 1.7 | 0.00 | 0.00 | 0.00 | 99 | 1017.0 |
| 20260901130003 | 74 | 253 | 0.9 | 4.3 | 0.00 | 0.00 | 0.00 | 99 | 1016.8 |
| 20260901125003 | 74 | 291 | 0.9 | 5.2 | 0.00 | 0.00 | 0.00 | 99 | 1017.1 |
| 20260901124003 | 74 | 285 | 1.7 | 4.3 | 0.00 | 0.00 | 0.00 | 99 | 1017.0 |
| 20260901123004 | 74 | 3 | 1.7 | 2.6 | 0.00 | 0.00 | 0.00 | 99 | 1017.0 |
| 20260901122003 | 73 | 217 | 0.9 | 4.3 | 0.00 | 0.00 | 0.00 | 99 | 1016.9 |
| 20260901120003 | 73 | 177 | 1.7 | 2.6 | 0.00 | 0.00 | 0.00 | 99 | 1016.7 |
| 20260901115004 | 73 | 124 | 1.7 | 2.6 | 0.00 | 0.00 | 0.00 | 99 | 1016.5 |
| 20260901114003 | 73 | 264 | 1.7 | 5.2 | 0.00 | 0.00 | 0.00 | 99 | 1016.2 |
| 20260901113003 | 73 | 29 | 3.5 | 5.2 | 0.00 | 0.00 | 0.00 | 99 | 1016.2 |
| 20260901112003 | 73 | 311 | 1.7 | 4.3 | 0.00 | 0.00 | 0.00 | 99 | 1015.9 |
| 20260901111003 | 73 | 346 | 0.9 | 2.6 | 0.00 | 0.00 | 0.00 | 99 | 1016.0 |
| 20260901110003 | 73 | 160 | 0.9 | 2.6 | 0.00 | 0.00 | 0.00 | 99 | 1015.6 |
| 20260901105003 | 73 | 258 | 0.9 | 2.6 | 0.00 | 0.00 | 0.00 | 99 | 1015.6 |
| 20260901104003 | 73 | 186 | 0.9 | 2.6 | 0.00 | 0.00 | 0.00 | 99 | 1015.6 |
| 20260901103003 | 73 | 228 | 0.9 | 1.7 | 0.00 | 0.00 | 0.00 | 99 | 1015.6 |